Weather Service Report


932 
ASUS41 KAKQ 260210
RWRAKQ

REGIONAL WEATHER ROUNDUP
NATIONAL WEATHER SERVICE WAKEFIELD VA
900 PM EST TUE NOV 25 2014

Note: "fair" indicates few or no clouds below 12,000 feet with no
significant weather and/or obstructions to visibility. * = Denotes
station may not report precipitation (e.g., rain,snow,etc.),
thunder or fog.

VAZ042-051-052>054-056-260300-
NORTHERN VIRGINIA
  
CITY           SKY/WX    TMP DP  RH WIND       PRES   REMARKS
WASH NATIONAL  CLOUDY    52  35  52 CALM      30.14R                  
DULLES         MOCLDY    41  36  82 CALM      30.12S                  
FORT BELVOIR   CLOUDY    44  37  76 CALM      30.13S                  
QUANTICO       CLOUDY    48  39  71 CALM      30.14R                  
FREDERICKSBRG* CLOUDY    49  41  74 CALM      30.12S                  
STAFFORD*      CLOUDY    44  37  76 CALM      30.16F                  
WARRENTON      CLOUDY    42  42  99 CALM      30.12S                  
CULPEPER*      CLOUDY    45  39  81 CALM      30.13S                  
MANASSAS*      CLOUDY    43  39  87 CALM      30.13                   
LEESBURG*      MOCLDY    43  36  75 CALM      30.13S                  
WINCHESTER     PTCLDY    41  27  56 NW3       30.12R                  
FRONT ROYAL*   CLOUDY    41  30  65 CALM      30.12R                  
LURAY*         CLOUDY    41  36  81 CALM      30.12S                  
$$

VAZ048-049-060>072-079>083-260300-
CENTRAL AND SOUTH CENTRAL VIRGINIA
  
CITY           SKY/WX    TMP DP  RH WIND       PRES   REMARKS
RICHMOND       CLOUDY    52  41  66 E5        30.12R                  
CHESTERFIELD*  CLOUDY    50  36  57 CALM      30.13R                  
PETERSBURG*    CLOUDY    50  48  90 CALM      30.13R                  
HANOVER        CLOUDY    49  43  80 E3        30.13R                  
TAPPAHANNOCK*  CLOUDY    48  39  71 CALM      30.14R                  
QUINTON*       CLOUDY    50  42  75 CALM      30.12R                  
CHARLOTTSVILLE CLOUDY    47  32  56 N3        30.10S                  
GORDONSVILLE*  CLOUDY    43  38  82 CALM      30.11F                  
ORANGE*        CLOUDY    45  39  81 CALM      30.13S                  
LOUISA*        CLOUDY    45  41  87 CALM      30.11S                  
BUMPASS*       CLOUDY    48  42  79 CALM      30.11F                  
FARMVILLE*     CLOUDY    48  41  75 CALM      30.10R                  
CREWE*         CLOUDY    49  41  76 CALM      30.10S                  
FORT PICKETT*  CLOUDY    49  43  80 CALM      30.11F                  
CHASE CITY*    CLOUDY    50  46  85 CALM      30.11R                  
CLARKSVILLE*   CLOUDY    50  39  66 CALM      30.11R                  
SOUTH HILL*    CLOUDY    50  47  88 CALM      30.17R                  
LAWRENCEVILLE* CLOUDY    53  48  85 CALM      30.11R                  
$$

VAZ088>098-260300-
SOUTHEAST VIRGINIA
  
CITY           SKY/WX    TMP DP  RH WIND       PRES   REMARKS
NORFOLK        LGT RAIN  53  49  86 N5        30.12R                  
VIRGINIA BEACH LGT RAIN  55  50  83 E7        30.11R                  
NORFOLK NAVAL  LGT RAIN  54  48  80 N6        30.14R                  
WEST POINT*    CLOUDY    52  41  66 CALM      30.14R                  
SALUDA*        FAIR      49  43  79 CALM      30.11R                  
NEWPORT NEWS   LGT RAIN  54  42  64 E6        30.13R                  
LANGLEY AFB    LGT RAIN  51  51 100 E3        30.14R                  
FORT EUSTIS    CLOUDY    53  38  55 VRB3      30.12R                  
WILLIAMSBURG*  CLOUDY    54  43  66 CALM      30.14R                  
HR EXEC AP*    CLOUDY    48  46  93 NW5       30.15R                  
FRANKLIN*      CLOUDY    50  46  87 SE3       30.14R                  
WAKEFIELD      CLOUDY    52  42  69 CALM      30.13R                  
$$

VAZ020-022-025-037-045-260300-
WEST CENTRAL AND SOUTHWEST VIRGINIA
  
CITY           SKY/WX    TMP DP  RH WIND       PRES   REMARKS
STAUNTON*      CLOUDY    40  32  71 CALM      30.13R                  
WAYNESBORO*    CLOUDY    42  28  58 CALM      30.12R                  
HOT SPRINGS VA CLOUDY    40  20  45 N5        30.05F                  
LYNCHBURG      CLOUDY    44  35  70 CALM      30.10F                  
DANVILLE       CLOUDY    49  40  71 E3        30.09F                  
SOUTH BOSTON*  CLOUDY    47  40  75 CALM      30.12R                  
MARTINSVILLE   CLOUDY    44  38  78 CALM      30.10F                  
ROANOKE        CLOUDY    46  30  53 E3        30.10F                  
BLACKSBURG     CLOUDY    43  34  70 CALM      30.07F                  
DUBLIN*        CLOUDY    43  33  68 CALM      30.08F                  
MARION*        CLOUDY    41  30  64 CALM      30.11R                  
HILLSVILLE*    CLOUDY    44  26  50 CALM      30.08R                  
RICHLANDS*     CLOUDY    47  26  44 NE3       30.08R                  
WISE*          CLOUDY    45  23  42 N5        30.10S                  
ABINGDON*      CLOUDY    43  31  62 CALM      30.09R                  
$$

MDZ021>025-VAZ099-100-260300-
SOUTHERN MARYLAND AND THE DELMARVA PENINSULA
  
CITY           SKY/WX    TMP DP  RH WIND       PRES   REMARKS
PATUXENT RIVER CLOUDY    49  42  77 NW6       30.12R                  
BAY BRIDGE APT   N/A     46  37  71 CALM      30.14R                  
LEONARDTOWN    CLOUDY    46  37  71 CALM      30.14R                  
DOVER          CLOUDY    48  38  69 SW2       30.11R                  
GEORGETOWN     CLOUDY    49  40  71 N3        30.13R                  
EASTON         CLOUDY    48  41  76 CALM      30.17R                  
CAMBRIDGE      CLOUDY    48  41  76 CALM      30.13R                  
SALISBURY      CLOUDY    50  42  74 CALM      30.12R                  
OCEAN CITY     CLOUDY    48  42  80 CALM      30.12R                  
WALLOPS ISLAND CLOUDY    50  43  77 NE3       30.13R                  
ACCOMACK*      CLOUDY    52  43  71 CALM      30.12R                  
$$

NCZ012>017-030>032-260300-
NORTH CENTRAL AND EASTERN NORTH CAROLINA
  
CITY           SKY/WX    TMP DP  RH WIND       PRES   REMARKS
ROANOKE RAPIDS LGT RAIN  50  50 100 E5        30.12R                  
RALEIGH        LGT RAIN  50  45  83 CALM      30.13R                  
ELIZABETH CITY CLOUDY    58  52  80 CALM      30.13R                  
AHOSKIE*       HVY RAIN  49  47  93 CALM      30.13R                  
EDENTON*       DRIZZLE   53  51  94 CALM      30.12R                  
CURRITUCK*     CLOUDY    55  52  87 CALM      30.13R                  
KILL DEVIL HLS CLOUDY    57  55  93 CALM      30.10R                  
MANTEO         CLOUDY    55  54  94 NE5       30.11R                  
CAPE HATTERAS  CLOUDY    59  59 100 VRB5      30.08F                  
TARBORO*       RAIN      54  53  95 NE3       30.11S                  
GOLDSBORO      CLOUDY    53  53  98 NE3       30.07F                  
WASHINGTON     CLOUDY    56  54  94 CALM      30.11S                  
GREENVILLE     LGT RAIN  54  54 100 CALM      30.11F                  
NEW BERN       LGT RAIN  63  60  90 N6        30.09F FOG              
WILMINGTON     RAIN      63  62  97 E8        30.05F FOG              
$$

VAZ048-260300-
ELSEWHERE
  
CITY           SKY/WX    TMP DP  RH WIND       PRES   REMARKS
HARRISBURG PA  MOCLDY    37  30  75 CALM      30.11S                  
BALTIMORE      CLOUDY    43  33  68 CALM      30.14R                  
ANNAPOLIS      CLOUDY    47  40  76 CALM      30.14R                  
ANDREWS AFB    CLOUDY    46  36  69 CALM      30.12S                  
PHILADELPHIA   MOCLDY    49  32  52 SW6       30.14R                  
WILDWOOD NJ*   CLOUDY    46  37  71 CALM      30.10S                  
HENDERSON NC   LGT RAIN  50  42  72 CALM      30.12R                  
GREENSBORO     CLOUDY    52  39  61 NE6       30.07F                  
ROCKY MOUNT    LGT RAIN  51  49  92 NE3       30.10F                  
$$

VAZ100-260300-
MARINE
  
STATION/POSITION TIME  TEMP    WIND        PRES    WAVE   SWELL
                       AIR SEA DIR/SP/G            HT/PER HT/PER
                 (UTC) (F)     (DEG/KT/KT) (MB)    (FT/S) (FT/S)
CAPE MAY NJ      0200   49 51   20/  1/  2 1019.6F
LEWES DE         0200   50 51   CALM  /  1 1019.7F
15NM E FENWICK I 0200   54 54              1019.8R   4/ 9
OCEAN-CITY-INLET 0200   52 50   70/  2/  3 1019.6R
WACHAPREAGUE VA  0200   52 53   60/  5/  7 1019.6R
THOMAS POINT MD  0200   50 48  250/  3/  3 1021.6R
GOOSES REEF MD   0200   49 49     CALM     1020.6R   0
COVE POINT MD    0200   51     230/  2/  2 1020.2R
SOLOMONS ISLAND  0200      50                N/A
BISHOPS HEAD MD  0200   50 49  360/  3/  5 1019.1F
PINEY POINT MD   0200          360/  4/  5   N/A
POTOMAC MD       0200   50 50   CALM  /  2 1019.4R   0
CAMBRIDGE MD     0200   47 46  270/  3/  3 1020.2R
LEWISETTA VA     0200   50 50  360/  2/  4 1019.3S
RAPPAHANNOCK LGT 0200           80/  5/  6 1020.1R
STINGRAY PT      0200   51 50   50/  2/  4 1020.3R   0
YORK RVR RNG VA  0200   52      70/  8/  8 1019.0F
YORKTOWN VA      0200   52 51  120/  5/  5 1019.2R
JAMESTOWN VA     0200   51 51  230/  2/  2   N/A     0
DOMINION TERM VA 0200   52      60/  5/  6 1019.8R
KIPTOPEKE VA     0200      56   20/  1/  2   N/A
CHES BAY BRIDGE  0200   54 52   40/  7/  8 1019.1S
CAPE HENRY VA    0200   54      60/  9/ 10 1018.0F
CHESAPEAKE LGHT  0100   56      70/ 17/ 18 1019.1F
WILLOUBY STN VA  0200   52      40/  5/  5 1018.6R
S CRANEY ISL VA  0200          340/  4/  5 1019.9R
CAPE HENRY BUOY  0100      56                N/A     4/ 8
1ST LANDING BUOY 0200   54 52   30/  6/  6 1019.6R   2/ 4
CAPE CHARLES BUO 0200      55                N/A     3/ 8   3/ 8
64NM E OF VA BCH 0200   61 64   60/ 10/ 12 1019.0R   4/ 9   3/ 9
DUCK PIER NC     0200   58 59   70/ 12/ 13 1018.8R
44100 DUCK FRF   0200      59                N/A     4/ 8   2/11
44056 DUCK FRF   0200      58                N/A     3/ 9
OREGON INLET NC  0200   58 58   10/  7/  8 1019.1F
HATTERAS NC      0200   59 63   10/  5/  6 1018.8R
DIAMOND SHLS NC  0200   67     340/  8/ 12 1018.2F   5/ 9   5/ 9
CAPE LOOKOUT NC  0100   63      40/  8/  9 1017.7F
$$

Return to Home page


Western Regional Climate Center, wrcc@dri.edu